Regional Weather Roundup
Issued by NWS Newport/Morehead, NC

Current Version | Previous Version | Graphics & Text | Print | Product List | Glossary Off
Versions: 1 2 3 4 5 6 7 8 9 10 11 12 13 14 15 16 17 18 19 20 21 22 23 24 25 26 27 28 29 30 31 32 33 34 35 36 37 38 39 40 41 42 43 44 45 46 47 48 49 50
000 ASUS42 KMHX 202110 RWRMHX WEATHER ROUNDUP FOR EASTERN NORTH CAROLINA NATIONAL WEATHER SERVICE NEWPORT/MOREHEAD CITY NC 500 PM EDT MON OCT 20 2014 NOTE: "FAIR" INDICATES FEW OR NO CLOUDS BELOW 12,000 FEET WITH NO SIGNIFICANT WEATHER AND/OR OBSTRUCTIONS TO VISIBILITY NCZ015>017-031-032-045>047-102-103-202200- NORTH COAST CITY SKY/WX TMP DP RH WIND PRES REMARKS EDENTON SUNNY 70 51 50 SW9 30.01F ELIZABETH CITY SUNNY 70 46 42 S9 30.01F KITTY HAWK CLEAR 67 52 57 S7 30.02F MANTEO SUNNY 66 53 62 S9 30.04F $$ NCZ045>047-081-094-103-104-202200- CENTRAL COAST CITY SKY/WX TMP DP RH WIND PRES REMARKS FRISCO SUNNY 69 54 58 SE6 30.04F SWANQUARTER N/A 70 N/A N/A S7G13 29.97F $$ NCZ095-097-098-100-101-202200- SOUTHERN COAST CITY SKY/WX TMP DP RH WIND PRES REMARKS BEAUFORT SUNNY 70 54 56 SE9 30.03F CEDAR ISLAND N/A 70 N/A N/A SE10 30.06F JACKSONVILLE SUNNY 70 55 59 SE10 30.01F PINEY ISLAND CLEAR 73 53 49 S7 30.03F WILMINGTON MOSUNNY 72 56 57 SE8 30.01F $$ NCZ011>013-027>030-043-044-078>080-089-090>093-098-202200- COASTAL PLAIN CITY SKY/WX TMP DP RH WIND PRES REMARKS AHOSKIE SUNNY 67 47 49 S5 30.00F CLINTON MOSUNNY 73 54 52 SW5 30.00F ELIZABETHTOWN PTSUNNY 74 52 47 S6 30.00F GOLDSBORO SUNNY 73 55 52 S5 29.98F GREENVILLE SUNNY 72 50 46 S10 30.02F HAVELOCK SUNNY 70 54 56 S7 30.04F KENANSVILLE PTSUNNY 73 51 46 SW5 30.00F KINSTON NOT AVBL NEW BERN SUNNY 72 54 53 S13 30.03F RICHLANDS PTSUNNY 72 54 53 S9 30.01F ROCKY MOUNT SUNNY 70 47 43 S6 30.00F WASHINGTON SUNNY 70 50 48 S7 30.01F WHITEVILLE MOSUNNY 73 55 53 S7 30.00S $$ AMZ130-135-150-152-154-156-158-170-250-252-270-ANZ085-086-088-633-658-670-202200- MARINE OBSERVATIONS STATION/POSITION TIME TEMP WIND PRES WAVE SWELL AIR SEA DIR/SP/G HT/PER HT/PER (UTC) (F) (DEG/KT/KT) (MB) (FT/S) (FT/S) CHESAPEAKE LIGHT 2000 64 190/ 17/ 18 1017.1 64 E VA BEACH 2100 67 69 190/ 14/ 16 1016.8 2/13 2/13 DUCK 2100 67 68 180/ 12/ 15 1015.9 2 E DUCK 2100 N/A 2/13 2/13 10 NE DUCK 2100 71 N/A 3/12 2/12 OREGON INLET 2100 66 68 150/ 6/ 8 1017.3 13E OREGON INLT 2100 73 N/A 3/12 2/12 HATTERAS CG 2100 68 69 150/ 5/ 7 1017.7 DIAMOND BUOY 2100 72 180/ 12/ 17 1017.4 3/ 8 3/ 8 17 S OCRACOKE 2000 VRB 2/ 4 1017.7 CAPE LOOKOUT 2000 68 130/ 5/ 6 1017.4 BEAUFORT LAB 2100 70 70 170/ 6/ 8 1016.2 30 SE NEW RIVER 2100 70 77 140/ 8/ 10 1016.5 2/ 8 2/ 8 5 SE WRIGHTSVLE 2100 67 74 160/ 8/ 10 N/A 225 S CAPE HAT 1958 73 80 90/ 8/ 12 1018.2 4/ 8 3/ 8 41 SE CHARLESTON 2100 75 80 120/ 8/ 10 1015.8 2/ 9 2/ 9 $$

USA.gov is the U.S. government's official web portal to all federal, state and local government web resources and services.